Location: Iowa City
(41.6610°N, 91.5300°W)
Time: 12:09:42
(UTC-06:00)

ISS - Visible Passes

Search period start: 22 January 2017 00:00
Search period end: 01 February 2017 00:00
Orbit: 399 x 410 km, 51.6° (Epoch: 23 January)

Date Brightness Start Highest point End Pass type
(mag) Time Alt. Az. Time Alt. Az. Time Alt. Az.
26 Jan -1.0 18:42:10 10° SSE 18:43:08 13° SSE 18:43:08 13° SSE visible
27 Jan -1.3 19:24:40 10° SW 19:26:10 25° SW 19:26:10 25° SW visible
28 Jan -2.5 18:32:43 10° SSW 18:35:42 34° SE 18:36:25 30° ESE visible
29 Jan -2.4 19:16:34 10° WSW 19:19:15 46° WNW 19:19:15 46° WNW visible
30 Jan -3.4 18:24:11 10° SW 18:27:27 84° SE 18:29:19 23° ENE visible
30 Jan 0.1 20:01:41 10° WNW 20:01:59 12° WNW 20:01:59 12° WNW visible
31 Jan -1.8 19:08:50 10° W 19:11:44 28° NNW 19:11:58 28° NNW visible
